Tracking 25710 objects as of 6-Jul-2022
HD Live streaming from Space Station
objects crossing your sky now

FENGYUN 1C DEB

Track FENGYUN 1C DEB now!
10-day predictions


NORAD ID: 31937
Int'l Code: 1999-025CMN
Perigee: 554.3 km
Apogee: 872.9 km
Inclination: 99.3 °
Period: 98.9 minutes
Semi major axis: 7084 km
RCS: 0.0094 m2 (small)
Launch date: May 10, 1999
Source: People's Republic of China (PRC)
Launch site: Taiyaun Space Center, China (TSC)

Note: This is SATELLITE DEBRIS
aabbcc
Your satellite tracking list
Your tracking list is empty




NASA's NSSDC Master Catalog

Two Line Element Set (TLE):
1 31937U 99025CMN 22186.47937188  .00001030  00000-0  17804-3 0  9991
2 31937  99.2541  97.6709 0224872 170.1039 190.4697 14.55887541476673
Source of the keplerian elements: AFSPC